| time (UTC) | temp C | wind direction | speed KPH | gust KPH | rain 1hr cm | rain 24hr cm | rain mn cm | humidity % | barometer mb |
| 20260505121536 | 17 | 307 | 4.8 | 17.7 | 0.00 | 0.00 | 0.00 | 62 | 1013.7 |
| 20260505120045 | 17 | 263 | 1.6 | 11.3 | 0.00 | 0.00 | 0.00 | 65 | 1013.6 |
| 20260505114532 | 16 | 270 | 1.6 | 9.7 | 0.00 | 0.00 | 0.00 | 68 | 1013.4 |
| 20260505113033 | 15 | 297 | 3.2 | 9.7 | 0.00 | 0.00 | 0.00 | 69 | 1013.2 |
| 20260505111528 | 15 | 264 | 3.2 | 9.7 | 0.00 | 0.00 | 0.00 | 71 | 1013.0 |
| 20260505101521 | 12 | 285 | 0.0 | 0.0 | 0.00 | 0.00 | 0.00 | 77 | 1012.6 |
| 20260505100022 | 12 | 285 | 0.0 | 0.0 | 0.00 | 0.00 | 0.00 | 74 | 1012.4 |
| 20260505094519 | 13 | 285 | 0.0 | 1.6 | 0.00 | 0.00 | 0.00 | 74 | 1012.4 |
| 20260505093017 | 12 | 281 | 0.0 | 0.0 | 0.00 | 0.00 | 0.00 | 77 | 1012.4 |
| 20260505091616 | 12 | 281 | 0.0 | 0.0 | 0.00 | 0.00 | 0.00 | 77 | 1012.2 |
| 20260505090013 | 12 | 281 | 0.0 | 0.0 | 0.00 | 0.00 | 0.00 | 76 | 1012.2 |
| 20260505084532 | 13 | 281 | 0.0 | 0.0 | 0.00 | 0.00 | 0.00 | 74 | 1012.1 |
| 20260505083010 | 13 | 281 | 0.0 | 1.6 | 0.00 | 0.00 | 0.00 | 75 | 1012.1 |
| 20260505081515 | 13 | 281 | 0.0 | 0.0 | 0.00 | 0.00 | 0.00 | 72 | 1012.0 |
| 20260505080005 | 13 | 281 | 0.0 | 0.0 | 0.00 | 0.00 | 0.00 | 69 | 1012.0 |
| 20260505074507 | 14 | 281 | 0.0 | 1.6 | 0.00 | 0.00 | 0.00 | 70 | 1012.0 |
| 20260505073001 | 14 | 281 | 0.0 | 1.6 | 0.00 | 0.00 | 0.00 | 70 | 1011.9 |
| 20260505071600 | 15 | 281 | 0.0 | 0.0 | 0.00 | 0.00 | 0.00 | 67 | 1011.8 |
| 20260505070054 | 16 | 281 | 0.0 | 1.6 | 0.00 | 0.00 | 0.00 | 65 | 1011.9 |
| 20260505064559 | 16 | 281 | 0.0 | 0.0 | 0.00 | 0.00 | 0.00 | 63 | 1011.9 |
| 20260505063055 | 17 | 281 | 0.0 | 4.8 | 0.00 | 0.00 | 0.00 | 62 | 1012.1 |
| 20260505061552 | 17 | 295 | 0.0 | 3.2 | 0.00 | 0.00 | 0.00 | 61 | 1012.2 |
| 20260505060049 | 17 | 290 | 0.0 | 1.6 | 0.00 | 0.00 | 0.00 | 61 | 1012.2 |
| 20260505054549 | 17 | 286 | 0.0 | 3.2 | 0.00 | 0.00 | 0.00 | 60 | 1012.3 |
| 20260505053109 | 17 | 281 | 1.6 | 8.0 | 0.00 | 0.00 | 0.00 | 59 | 1012.2 |
| 20260505051545 | 17 | 283 | 1.6 | 8.0 | 0.00 | 0.00 | 0.00 | 59 | 1012.2 |
| 20260505041542 | 16 | 266 | 0.0 | 4.8 | 0.00 | 0.00 | 0.00 | 61 | 1012.0 |
| 20260505040035 | 16 | 278 | 0.0 | 1.6 | 0.00 | 0.00 | 0.00 | 60 | 1012.0 |
| 20260505034533 | 15 | 277 | 0.0 | 3.2 | 0.00 | 0.00 | 0.00 | 62 | 1012.0 |
| 20260505033033 | 15 | 286 | 0.0 | 0.0 | 0.00 | 0.00 | 0.00 | 60 | 1011.9 |
| 20260505031531 | 15 | 286 | 0.0 | 1.6 | 0.00 | 0.00 | 0.00 | 59 | 1011.9 |
| 20260505030030 | 15 | 280 | 0.0 | 4.8 | 0.00 | 0.00 | 0.00 | 60 | 1011.9 |
| 20260505024529 | 16 | 251 | 0.0 | 0.0 | 0.00 | 0.00 | 0.00 | 57 | 1011.7 |
| 20260505023029 | 17 | 290 | 0.0 | 6.4 | 0.00 | 0.00 | 0.00 | 55 | 1012.0 |
| 20260505021531 | 16 | 291 | 3.2 | 6.4 | 0.00 | 0.00 | 0.00 | 55 | 1012.0 |
| 20260505020028 | 16 | 245 | 0.0 | 4.8 | 0.00 | 0.00 | 0.00 | 58 | 1011.8 |
| 20260505014528 | 16 | 291 | 0.0 | 1.6 | 0.00 | 0.00 | 0.00 | 56 | 1011.8 |
| 20260505013027 | 16 | 259 | 0.0 | 3.2 | 0.00 | 0.00 | 0.00 | 54 | 1011.8 |
| 20260505011545 | 17 | 310 | 0.0 | 1.6 | 0.00 | 0.00 | 0.00 | 52 | 1011.8 |
| 20260505010026 | 17 | 84 | 0.0 | 3.2 | 0.00 | 0.00 | 0.00 | 50 | 1011.5 |
| 20260505004526 | 18 | 80 | 1.6 | 4.8 | 0.00 | 0.00 | 0.00 | 49 | 1011.3 |
| 20260505003025 | 18 | 87 | 0.0 | 3.2 | 0.00 | 0.00 | 0.00 | 47 | 1011.1 |
| 20260505001524 | 19 | 276 | 0.0 | 3.2 | 0.00 | 0.00 | 0.00 | 45 | 1011.0 |
| 20260505000031 | 20 | 297 | 0.0 | 8.0 | 0.00 | 0.00 | 0.00 | 44 | 1011.0 |
| 20260504234528 | 20 | 255 | 1.6 | 8.0 | 0.00 | 0.00 | 0.00 | 42 | 1010.9 |
| 20260504233022 | 21 | 274 | 1.6 | 9.7 | 0.00 | 0.00 | 0.00 | 41 | 1010.9 |
| 20260504231520 | 21 | 225 | 1.6 | 9.7 | 0.00 | 0.00 | 0.00 | 41 | 1010.9 |
| 20260504230019 | 22 | 251 | 1.6 | 12.9 | 0.00 | 0.00 | 0.00 | 40 | 1011.0 |
| 20260504224518 | 22 | 236 | 1.6 | 8.0 | 0.00 | 0.00 | 0.00 | 41 | 1011.2 |
| 20260504223023 | 22 | 278 | 3.2 | 19.3 | 0.00 | 0.00 | 0.00 | 39 | 1011.2 |
| 20260504221516 | 22 | 265 | 3.2 | 19.3 | 0.00 | 0.00 | 0.00 | 38 | 1011.2 |
| 20260504220015 | 22 | 268 | 4.8 | 22.5 | 0.00 | 0.00 | 0.00 | 39 | 1011.3 |
| 20260504214514 | 22 | 309 | 3.2 | 17.7 | 0.00 | 0.00 | 0.00 | 39 | 1011.3 |
| 20260504213014 | 23 | 304 | 3.2 | 12.9 | 0.00 | 0.00 | 0.00 | 39 | 1011.3 |
| 20260504211512 | 22 | 261 | 4.8 | 16.1 | 0.00 | 0.00 | 0.00 | 37 | 1011.4 |
| 20260504210018 | 22 | 275 | 3.2 | 17.7 | 0.00 | 0.00 | 0.00 | 39 | 1011.3 |
| 20260504204511 | 22 | 269 | 6.4 | 19.3 | 0.00 | 0.00 | 0.00 | 38 | 1011.3 |
| 20260504203010 | 22 | 279 | 3.2 | 14.5 | 0.00 | 0.00 | 0.00 | 37 | 1011.6 |
| 20260504201507 | 22 | 293 | 6.4 | 16.1 | 0.00 | 0.00 | 0.00 | 41 | 1011.7 |
| 20260504200004 | 22 | 304 | 3.2 | 19.3 | 0.00 | 0.00 | 0.00 | 39 | 1012.0 |
| 20260504194503 | 22 | 287 | 8.0 | 24.1 | 0.00 | 0.00 | 0.00 | 37 | 1012.2 |
| 20260504193111 | 22 | 259 | 3.2 | 17.7 | 0.00 | 0.00 | 0.00 | 40 | 1012.5 |
| 20260504193003 | 22 | 61 | 4.8 | 17.7 | 0.00 | 0.00 | 0.00 | 39 | 1012.5 |
| 20260504191612 | 22 | 297 | 6.4 | 16.1 | 0.00 | 0.00 | 0.00 | 40 | 1012.7 |
| 20260504190056 | 22 | 273 | 3.2 | 19.3 | 0.00 | 0.00 | 0.00 | 41 | 1012.8 |
| 20260504184553 | 22 | 233 | 3.2 | 20.9 | 0.00 | 0.00 | 0.00 | 39 | 1013.1 |
| 20260504183053 | 22 | 256 | 11.3 | 25.7 | 0.00 | 0.00 | 0.00 | 40 | 1013.4 |
| 20260504181551 | 22 | 80 | 3.2 | 20.9 | 0.00 | 0.00 | 0.00 | 42 | 1013.6 |
| 20260504180048 | 21 | 244 | 6.4 | 14.5 | 0.00 | 0.00 | 0.00 | 41 | 1013.8 |
| 20260504174542 | 21 | 269 | 8.0 | 17.7 | 0.00 | 0.00 | 0.00 | 43 | 1014.0 |
| 20260504173041 | 21 | 307 | 6.4 | 14.5 | 0.00 | 0.00 | 0.00 | 42 | 1014.1 |
| 20260504171546 | 21 | 288 | 4.8 | 12.9 | 0.00 | 0.00 | 0.00 | 38 | 1014.2 |